Location: Gleizolles
(44.4833°N, 6.7667°E)
Time: 02:56:24
(UTC+00:00)

Vanguard 1 Rocket - Pass Details

Date: 29 June 2024
Orbit: 650 x 4219 km, 34.3° (Epoch: 15 July)

Event Time Altitude Azimuth Distance (km) Brightness Sun altitude
Rises 07:00:43 0° 280° (W) 7,469 11.5 30.8°
Reaches altitude 10° 07:07:01 10° 269° (W) 6,872 11.4 31.9°
Maximum altitude 07:23:29 24° 226° (SW) 6,253 11.5 34.8°
Drops below altitude 10° 07:40:41 10° 183° (S) 7,050 12.0 37.9°
Sets 07:47:33 0° 170° (S) 7,676 12.3 39.1°
